Location: Gleizolles
(44.4833°N, 6.7667°E)
Time: 15:42:40
(UTC+00:00)

Explorer 7 - Pass Details

Date: 20 June 2024
Orbit: 465 x 619 km, 50.3° (Epoch: 12 July)

Event Time Altitude Azimuth Distance (km) Brightness Sun altitude
Rises 15:28:21 0° 296° (WNW) 2,544 10.9 38.4°
Reaches altitude 10° 15:30:35 10° 302° (WNW) 1,647 10.1 38.0°
Maximum altitude 15:34:12 49° 18° (NNE) 615 7.3 37.4°
Drops below altitude 10° 15:37:43 10° 95° (E) 1,616 8.8 36.8°
Sets 15:39:55 0° 101° (E) 2,490 9.7 36.4°
